• In Uzbekistan
  • List of Countries
  • For 7 days
  • Water Temperature
  • Satellite Maps
  • Weather Map
  • Weather Widgets
  • user-avatar
    Login

    Hourly Weather Ali Bayramli

    Today, 21 September, Thursday

    Time Temperature Precipitation Wind Pressure Humidity
    00:00 +26°C° 0 mm 1 mps 758 mmHg 61%
    01:00 +26°C° 0 mm 1 mps 758 mmHg 61%
    02:00 +25°C° 0 mm 1 mps 758 mmHg 61%
    03:00 +25°C° 0 mm 1 mps 758 mmHg 62%
    04:00 +25°C° 0 mm 1 mps 758 mmHg 62%
    05:00 +25°C° 0 mm 1 mps 758 mmHg 62%
    06:00 +24°C° 0 mm 1 mps 758 mmHg 62%
    07:00 +26°C° 0 mm 1 mps 758 mmHg 56%
    08:00 +28°C° 0 mm 1 mps 758 mmHg 50%
    09:00 +30°C° 0 mm 1 mps 759 mmHg 43%
    10:00 +31°C° 0 mm 2 mps 758 mmHg 38%
    11:00 +34°C° 0 mm 2 mps 758 mmHg 33%
    12:00 +35°C° 0 mm 3 mps 758 mmHg 28%
    13:00 +35°C° 0 mm 4 mps 757 mmHg 27%
    14:00 +36°C° 0 mm 4 mps 757 mmHg 26%
    15:00 +36°C° 0 mm 5 mps 757 mmHg 24%
    16:00 +34°C° 0 mm 5 mps 757 mmHg 28%
    17:00 +33°C° 0 mm 5 mps 757 mmHg 31%
    18:00 +30°C° 0 mm 5 mps 757 mmHg 34%
    19:00 +29°C° 0 mm 4 mps 757 mmHg 39%
    20:00 +28°C° 0 mm 3 mps 757 mmHg 44%
    21:00 +27°C° 0 mm 3 mps 758 mmHg 49%
    22:00 +27°C° 0 mm 3 mps 758 mmHg 50%
    23:00 +27°C° 0 mm 2 mps 758 mmHg 52%

    Tomorrow, 22 September, Friday

    Time Temperature Precipitation Wind Pressure Humidity
    00:00 +26°C° 0 mm 2 mps 758 mmHg 54%
    01:00 +26°C° 0 mm 2 mps 758 mmHg 55%
    02:00 +25°C° 0 mm 2 mps 757 mmHg 56%
    03:00 +25°C° 0 mm 2 mps 757 mmHg 57%
    04:00 +25°C° 0 mm 1 mps 757 mmHg 58%
    05:00 +25°C° 0 mm 1 mps 757 mmHg 59%
    06:00 +24°C° 0 mm 1 mps 757 mmHg 60%
    07:00 +26°C° 0 mm 1 mps 757 mmHg 53%
    08:00 +28°C° 0 mm 1 mps 757 mmHg 46%
    09:00 +30°C° 0 mm 1 mps 757 mmHg 39%
    10:00 +31°C° 0 mm 2 mps 757 mmHg 34%
    11:00 +34°C° 0 mm 2 mps 757 mmHg 29%
    12:00 +35°C° 0 mm 3 mps 757 mmHg 24%
    13:00 +35°C° 0 mm 4 mps 756 mmHg 23%
    14:00 +35°C° 0 mm 5 mps 756 mmHg 22%
    15:00 +36°C° 0 mm 5 mps 756 mmHg 21%
    16:00 +34°C° 0 mm 5 mps 756 mmHg 27%
    17:00 +32°C° 0 mm 5 mps 756 mmHg 33%
    18:00 +30°C° 0 mm 5 mps 756 mmHg 38%
    19:00 +29°C° 0 mm 4 mps 756 mmHg 45%
    20:00 +28°C° 0 mm 4 mps 756 mmHg 52%
    21:00 +27°C° 0 mm 3 mps 757 mmHg 59%
    22:00 +27°C° 0 mm 3 mps 757 mmHg 61%
    23:00 +26°C° 0 mm 2 mps 757 mmHg 63%

    Day after tomorrow, 23 September, Saturday

    Time Temperature Precipitation Wind Pressure Humidity
    00:00 +26°C° 0 mm 2 mps 757 mmHg 66%
    01:00 +26°C° 0 mm 2 mps 757 mmHg 65%
    02:00 +26°C° 0 mm 2 mps 757 mmHg 64%
    03:00 +26°C° 0 mm 2 mps 757 mmHg 63%
    04:00 +25°C° 0 mm 2 mps 758 mmHg 61%
    05:00 +25°C° 0 mm 1 mps 758 mmHg 60%
    06:00 +25°C° 0 mm 1 mps 758 mmHg 58%
    07:00 +27°C° 0 mm 1 mps 759 mmHg 50%
    08:00 +29°C° 0 mm 1 mps 759 mmHg 41%
    09:00 +30°C° 0 mm 1 mps 759 mmHg 33%
    10:00 +31°C° 0 mm 2 mps 759 mmHg 28%
    11:00 +34°C° 0 mm 3 mps 759 mmHg 24%
    12:00 +35°C° 0 mm 3 mps 759 mmHg 20%
    13:00 +35°C° 0 mm 4 mps 759 mmHg 19%
    14:00 +35°C° 0 mm 5 mps 758 mmHg 19%
    15:00 +35°C° 0 mm 6 mps 758 mmHg 19%
    16:00 +34°C° 0 mm 6 mps 758 mmHg 23%
    17:00 +32°C° 0 mm 6 mps 759 mmHg 27%
    18:00 +30°C° 0 mm 5 mps 759 mmHg 32%
    19:00 +29°C° 0 mm 5 mps 759 mmHg 35%
    20:00 +28°C° 0 mm 5 mps 760 mmHg 38%
    21:00 +27°C° 0 mm 4 mps 760 mmHg 42%
    22:00 +27°C° 0 mm 4 mps 760 mmHg 42%
    23:00 +27°C° 0 mm 4 mps 760 mmHg 43%

    24 September, Sunday

    Time Temperature Precipitation Wind Pressure Humidity
    00:00 +26°C° 0 mm 4 mps 760 mmHg 44%
    01:00 +26°C° 0 mm 3 mps 760 mmHg 44%
    02:00 +25°C° 0 mm 3 mps 760 mmHg 45%
    03:00 +25°C° 0 mm 3 mps 760 mmHg 46%
    04:00 +24°C° 0 mm 3 mps 760 mmHg 49%
    05:00 +24°C° 0 mm 3 mps 761 mmHg 51%
    06:00 +24°C° 0 mm 3 mps 761 mmHg 53%
    07:00 +25°C° 0 mm 4 mps 761 mmHg 47%
    08:00 +27°C° 0 mm 4 mps 761 mmHg 41%
    09:00 +29°C° 0 mm 4 mps 762 mmHg 35%
    10:00 +30°C° 0 mm 4 mps 762 mmHg 32%
    11:00 +32°C° 0 mm 4 mps 761 mmHg 29%
    12:00 +33°C° 0 mm 3 mps 761 mmHg 26%
    13:00 +33°C° 0 mm 5 mps 761 mmHg 28%
    14:00 +33°C° 0 mm 6 mps 761 mmHg 30%
    15:00 +33°C° 0 mm 7 mps 761 mmHg 32%
    16:00 +30°C° 0 mm 7 mps 761 mmHg 39%
    17:00 +29°C° 0 mm 7 mps 761 mmHg 46%
    18:00 +27°C° 0 mm 7 mps 761 mmHg 53%
    19:00 +27°C° 0 mm 7 mps 762 mmHg 56%
    20:00 +26°C° 0 mm 6 mps 762 mmHg 59%
    21:00 +25°C° 0 mm 5 mps 762 mmHg 62%
    22:00 +25°C° 0 mm 5 mps 762 mmHg 63%
    23:00 +23°C° 0 mm 4 mps 762 mmHg 64%

    25 September, Monday

    Time Temperature Precipitation Wind Pressure Humidity
    00:00 +24°C° 0 mm 3 mps 762 mmHg 66%
    01:00 +24°C° 0 mm 3 mps 762 mmHg 67%
    02:00 +22°C° 0 mm 3 mps 761 mmHg 68%
    03:00 +23°C° 0 mm 2 mps 761 mmHg 69%
    04:00 +23°C° 0 mm 2 mps 762 mmHg 69%
    05:00 +23°C° 0 mm 2 mps 762 mmHg 69%
    06:00 +21°C° 0 mm 2 mps 762 mmHg 68%
    07:00 +24°C° 0 mm 2 mps 762 mmHg 60%
    08:00 +25°C° 0 mm 2 mps 762 mmHg 52%
    09:00 +27°C° 0 mm 2 mps 762 mmHg 44%
    10:00 +28°C° 0 mm 2 mps 762 mmHg 40%
    11:00 +29°C° 0 mm 2 mps 762 mmHg 36%
    12:00 +30°C° 0 mm 2 mps 761 mmHg 33%
    13:00 +31°C° 0 mm 3 mps 761 mmHg 33%
    14:00 +32°C° 0 mm 4 mps 761 mmHg 33%
    15:00 +32°C° 0 mm 5 mps 761 mmHg 34%
    16:00 +30°C° 0 mm 5 mps 761 mmHg 40%
    17:00 +28°C° 0 mm 6 mps 761 mmHg 46%
    18:00 +27°C° 0 mm 6 mps 761 mmHg 52%
    19:00 +26°C° 0 mm 5 mps 762 mmHg 54%
    20:00 +26°C° 0 mm 5 mps 762 mmHg 56%
    21:00 +25°C° 0 mm 4 mps 762 mmHg 58%
    22:00 +25°C° 0 mm 3 mps 762 mmHg 59%
    23:00 +25°C° 0 mm 3 mps 762 mmHg 61%

    26 September, Tuesday

    Time Temperature Precipitation Wind Pressure Humidity
    00:00 +24°C° 0 mm 3 mps 762 mmHg 63%
    01:00 +24°C° 0 mm 3 mps 762 mmHg 65%
    02:00 +23°C° 0 mm 2 mps 761 mmHg 66%
    03:00 +23°C° 0 mm 2 mps 761 mmHg 68%
    04:00 +23°C° 0 mm 2 mps 761 mmHg 69%
    05:00 +23°C° 0 mm 2 mps 762 mmHg 70%
    06:00 +21°C° 0 mm 2 mps 762 mmHg 71%
    07:00 +24°C° 0 mm 2 mps 762 mmHg 63%
    08:00 +26°C° 0 mm 2 mps 762 mmHg 56%
    09:00 +27°C° 0 mm 2 mps 762 mmHg 49%
    10:00 +28°C° 0 mm 2 mps 762 mmHg 45%
    11:00 +30°C° 0 mm 2 mps 761 mmHg 40%
    12:00 +31°C° 0 mm 2 mps 761 mmHg 35%
    13:00 +31°C° 0 mm 3 mps 761 mmHg 35%
    14:00 +32°C° 0 mm 4 mps 760 mmHg 34%
    15:00 +33°C° 0 mm 4 mps 760 mmHg 34%
    16:00 +30°C° 0 mm 5 mps 760 mmHg 38%
    17:00 +29°C° 0 mm 5 mps 760 mmHg 42%
    18:00 +28°C° 0 mm 5 mps 761 mmHg 46%
    19:00 +27°C° 0 mm 5 mps 761 mmHg 48%
    20:00 +26°C° 0 mm 4 mps 761 mmHg 50%
    21:00 +26°C° 0 mm 3 mps 761 mmHg 52%
    22:00 +25°C° 0 mm 3 mps 761 mmHg 53%
    23:00 +25°C° 0 mm 3 mps 761 mmHg 54%
    Show more